Weather in Salt Lake City

United States     40°46′35″N   111°56′56″W
temp.,
°C
wind,
m/s
gust,
m/s
humid.,
%
clouds,
%
prec.,
mm/h
press.,
hPa
HPBL,
m
16 september, thu
thu1600:00+20sse22240 0.0 100716
03:00+19sse45220 0.0 100673
06:00+18sse33221 0.0 100745
09:00+22s35184 0.0 1007259
12:00+27wnw33160 0.0 10061544
15:00+27nw54170 0.0 10061101
18:00+25nw34170 0.0 1007912
21:00+18nw11300 0.0 100950
17 september, fri
fri1700:00+17ssw01310 0.0 101018
03:00+17sse12270 0.0 101223
06:00+16sse23270 0.0 101338
09:00+20sse23210 0.0 1015259
12:00+27ssw35100 0.0 10131664
15:00+30w4790 0.0 10112867
18:00+29nw3590 0.0 10101351
21:00+22se33130 0.0 101239
18 september, sat
sat1800:00+21sse59112 0.0 1013183
03:00+21sse5102187 0.0 1014280
06:00+20sse51029100 0.0 1014282
09:00+23s6102892 0.2 1014847
12:00+24sse8103893 0.4 10151287
15:00+26sw81226100 0.0 10103070
18:00+20sse810461 0.4 1012801
21:00+18sse814550 0.0 1012609
19 september, sun
sun1900:00+18sse713584 0.0 1012504
03:00+17sse612590 0.0 1011402
06:00+16sse611585 0.0 1011314
09:00+19sse712450 0.0 1009594
12:00+27ssw912181 0.0 10062766
15:00+26wnw13141924 0.0 10062804
18:00+17nw793856 0.0 10141671
21:00+13n36467 0.0 1016767
20 september, mon
mon2000:00+12nnw36488 0.0 1018509
03:00+10nnw135316 0.0 1019433
06:00+10w34563 0.0 1021276
09:00+12wnw23467 0.0 10221047
12:00+16nw33324 0.0 10221772
15:00+18nw54220 0.0 10211802
18:00+17nw43235 0.0 10211095
21:00+11wnw11390 0.0 102470